Weather History for DeLand, FL

Change the Weather History Date:

Wednesday, January 1, 2014

  Actual Average Record
Temperature  
Mean Temperature 60 °F -  
Max Temperature 64 °F 74 °F 75 °F (2013)
Min Temperature 55 °F 51 °F 51 °F (2013)
Degree Days  
Heating Degree Days 6    
Growing Degree Days 10 (Base 50)    
Moisture  
Dew Point 57 °F    
Average Humidity 94    
Maximum Humidity 100    
Minimum Humidity 82    
Precipitation  
Precipitation 0.07 in - - ()
Sea Level Pressure  
Sea Level Pressure 30.22 in    
Wind  
Wind Speed 6 mph (NNE)    
Max Wind Speed 12 mph    
Max Gust Speed -    
Visibility 6 miles    
Events      
Averages and records for this station are not official NWS values.
T = Trace of Precipitation, MM = Missing Value Source: NWS Daily Summary

Daily Weather History Graph

Daily Weather History Graph

Search for Another Location

Airport:

Trip Planner

Search our weather history database for the weather conditions in past years. The results will help you decide how hot, cold, wet, or windy it might be!

Date:

Astronomy

Jan. 01, 2014 Rise Set
Actual Time 7:18 AM EST 5:38 PM EST
Civil Twilight 6:52 AM EST 6:04 PM EST
Nautical Twilight 6:23 AM EST 6:34 PM EST
Astronomical Twilight 5:54 AM EST 7:03 PM EST
Moon 7:13 AM EST (1/1) 6:16 PM EST (1/1)
Length of Visible Light 11h 11m
Length of Day
10h 19m
Waxing Crescent, 0% of the Moon is Illuminated
Jan 1
Waxing Crescent
Jan 7
First Quarter
Jan 15
Full
Jan 24
Last Quarter
Jan 30
New

Hourly Weather History & Observations

Time (EST) Temp. Dew Point Humidity Pressure Visibility Wind Dir Wind Speed Gust Speed Precip Events Conditions
12:15 AM 55.4 °F 51.8 °F 88% 30.29 in 9.0 mi North 5.8 mph - N/A   Clear
12:35 AM 57.2 °F 51.8 °F 82% 30.28 in 10.0 mi North 4.6 mph - N/A   Clear
12:55 AM 57.2 °F 51.8 °F 82% 30.28 in 9.0 mi North 5.8 mph - N/A   Clear
1:15 AM 57.2 °F 51.8 °F 82% 30.27 in 9.0 mi North 5.8 mph - N/A   Clear
1:35 AM 57.2 °F 51.8 °F 82% 30.26 in 10.0 mi NNE 5.8 mph - N/A   Clear
1:55 AM 57.2 °F 51.8 °F 82% 30.28 in 10.0 mi NNW 8.1 mph - N/A   Clear
2:15 AM 57.2 °F 51.8 °F 82% 30.28 in 8.0 mi North 6.9 mph - N/A   Clear
2:35 AM 57.2 °F 53.6 °F 88% 30.28 in 9.0 mi North 6.9 mph - N/A   Clear
2:55 AM 57.2 °F 53.6 °F 88% 30.28 in 9.0 mi North 6.9 mph - N/A   Clear
3:15 AM 57.2 °F 53.6 °F 88% 30.27 in 10.0 mi North 6.9 mph - N/A   Clear
3:35 AM 57.2 °F 53.6 °F 88% 30.27 in 9.0 mi North 6.9 mph - N/A   Clear
3:55 AM 57.2 °F 53.6 °F 88% 30.27 in 5.0 mi North 5.8 mph - N/A   Partly Cloudy
4:15 AM 57.2 °F 53.6 °F 88% 30.27 in 8.0 mi NNE 5.8 mph - N/A   Partly Cloudy
4:35 AM 57.2 °F 53.6 °F 88% 30.26 in 10.0 mi NNE 3.5 mph - N/A   Clear
4:55 AM 57.2 °F 53.6 °F 88% 30.26 in 8.0 mi North 4.6 mph - N/A   Clear
5:15 AM 57.2 °F 53.6 °F 88% 30.26 in 8.0 mi North 4.6 mph - N/A   Clear
5:35 AM 57.2 °F 53.6 °F 88% 30.27 in 9.0 mi North 3.5 mph - N/A   Clear
5:55 AM 57.2 °F 55.4 °F 94% 30.27 in 8.0 mi North 5.8 mph - N/A   Clear
6:15 AM 57.2 °F 55.4 °F 94% 30.27 in 6.0 mi North 4.6 mph - N/A   Clear
6:35 AM 57.2 °F 55.4 °F 94% 30.27 in 7.0 mi North 3.5 mph - N/A   Clear
6:55 AM 57.2 °F 55.4 °F 94% 30.27 in 6.0 mi North 4.6 mph - N/A   Clear
7:15 AM 57.2 °F 55.4 °F 94% 30.28 in 5.0 mi North 4.6 mph - N/A   Clear
7:35 AM 57.2 °F 55.4 °F 94% 30.28 in 6.0 mi North 3.5 mph - N/A   Clear
7:55 AM 57.2 °F 55.4 °F 94% 30.29 in 6.0 mi Calm Calm - N/A   Partly Cloudy
8:15 AM 57.2 °F 55.4 °F 94% 30.28 in 5.0 mi North 4.6 mph - N/A   Scattered Clouds
8:35 AM 57.2 °F 57.2 °F 100% 30.28 in 5.0 mi North 10.4 mph - N/A   Clear
8:55 AM 57.2 °F 57.2 °F 100% 30.28 in 6.0 mi NNE 6.9 mph - N/A   Partly Cloudy
9:15 AM 59.0 °F 57.2 °F 94% 30.28 in 7.0 mi North 6.9 mph - N/A   Scattered Clouds
9:35 AM 59.0 °F 57.2 °F 94% 30.29 in 8.0 mi North 6.9 mph - N/A   Mostly Cloudy
9:55 AM 59.0 °F 57.2 °F 94% 30.30 in 8.0 mi North 5.8 mph - N/A   Mostly Cloudy
10:15 AM 59.0 °F 59.0 °F 100% 30.29 in 8.0 mi NE 6.9 mph - N/A   Overcast
10:35 AM 60.8 °F 59.0 °F 94% 30.28 in 8.0 mi NNE 6.9 mph - N/A   Overcast
10:55 AM 62.6 °F 59.0 °F 88% 30.28 in 7.0 mi NNE 6.9 mph - N/A   Mostly Cloudy
11:15 AM 62.6 °F 59.0 °F 88% 30.27 in 7.0 mi NNE 6.9 mph - N/A   Mostly Cloudy
11:35 AM 62.6 °F 60.8 °F 94% 30.26 in 8.0 mi NNE 6.9 mph - N/A   Overcast
11:55 AM 64.4 °F 60.8 °F 88% 30.26 in 7.0 mi NE 5.8 mph - N/A   Overcast
12:15 PM 62.6 °F 60.8 °F 94% 30.25 in 2.5 mi NE 8.1 mph - N/A   Overcast
12:35 PM 62.6 °F 60.8 °F 94% 30.24 in 2.5 mi NNE 5.8 mph - 0.01 in   Overcast
12:55 PM 62.6 °F 60.8 °F 94% 30.23 in 3.0 mi NNE 4.6 mph - 0.02 in   Overcast
1:15 PM 62.6 °F 60.8 °F 94% 30.21 in 2.5 mi NNE 6.9 mph - N/A   Mostly Cloudy
1:35 PM 62.6 °F 60.8 °F 94% 30.20 in 2.0 mi North 9.2 mph - N/A   Overcast
1:55 PM 62.6 °F 60.8 °F 94% 30.19 in 3.0 mi NNE 8.1 mph - N/A   Overcast
2:15 PM 60.8 °F 59.0 °F 94% 30.19 in 3.0 mi North 8.1 mph - 0.01 in   Overcast
2:35 PM 59.0 °F 59.0 °F 100% 30.19 in 2.0 mi North 8.1 mph - 0.01 in   Overcast
2:55 PM 59.0 °F 59.0 °F 100% 30.19 in 2.0 mi North 6.9 mph - 0.02 in   Overcast
3:15 PM 59.0 °F 59.0 °F 100% 30.18 in 3.0 mi North 6.9 mph - N/A   Overcast
3:35 PM 60.8 °F 59.0 °F 94% 30.18 in 3.0 mi NE 6.9 mph - N/A   Overcast
3:55 PM 59.0 °F 59.0 °F 100% 30.17 in 3.0 mi NE 8.1 mph - 0.01 in   Overcast
4:15 PM 59.0 °F 59.0 °F 100% 30.17 in 7.0 mi NE 6.9 mph - 0.01 in   Overcast
4:35 PM 59.0 °F 59.0 °F 100% 30.17 in 5.0 mi NNE 5.8 mph - 0.01 in   Overcast
4:55 PM 59.0 °F 59.0 °F 100% 30.17 in 3.0 mi NNE 4.6 mph - 0.01 in   Overcast
5:15 PM 59.0 °F 59.0 °F 100% 30.17 in 3.0 mi NNE 5.8 mph - N/A   Overcast
5:35 PM 59.0 °F 59.0 °F 100% 30.17 in 5.0 mi NNE 5.8 mph - N/A   Overcast
5:55 PM 59.0 °F 59.0 °F 100% 30.17 in 4.0 mi NNE 5.8 mph - N/A   Overcast
6:15 PM 59.0 °F 59.0 °F 100% 30.17 in 3.0 mi NNE 8.1 mph - N/A   Overcast
6:35 PM 59.0 °F 59.0 °F 100% 30.17 in 5.0 mi NNE 8.1 mph - N/A   Overcast
6:55 PM 59.0 °F 59.0 °F 100% 30.17 in 7.0 mi NE 11.5 mph - N/A   Overcast
7:15 PM 59.0 °F 59.0 °F 100% 30.17 in 3.0 mi Calm Calm - N/A   Overcast
7:35 PM 59.0 °F 59.0 °F 100% 30.17 in 5.0 mi NNE 8.1 mph - N/A   Overcast
7:55 PM 59.0 °F 59.0 °F 100% 30.16 in 3.0 mi NNE 10.4 mph - N/A   Overcast
8:15 PM 59.0 °F 59.0 °F 100% 30.15 in 3.0 mi NE 8.1 mph - N/A   Overcast
8:35 PM 60.8 °F 59.0 °F 94% 30.15 in 4.0 mi NE 9.2 mph - N/A   Overcast
8:55 PM 60.8 °F 59.0 °F 94% 30.15 in 5.0 mi NNE 8.1 mph - N/A   Overcast
9:15 PM 60.8 °F 59.0 °F 94% 30.14 in 5.0 mi NE 6.9 mph - N/A   Overcast
9:35 PM 60.8 °F 59.0 °F 94% 30.13 in 5.0 mi NE 8.1 mph - N/A   Overcast
9:55 PM 62.6 °F 60.8 °F 94% 30.12 in 8.0 mi NNE 6.9 mph - 0.01 in   Overcast
10:15 PM 62.6 °F 60.8 °F 94% 30.12 in 2.5 mi NNE 5.8 mph - N/A   Overcast
10:35 PM 62.6 °F 60.8 °F 94% 30.12 in 2.5 mi NE 5.8 mph - N/A   Overcast
10:55 PM 62.6 °F 60.8 °F 94% 30.11 in 2.0 mi NNE 5.8 mph - N/A   Overcast
11:15 PM 62.6 °F 60.8 °F 94% 30.11 in 4.0 mi North 5.8 mph - N/A   Overcast
11:35 PM 62.6 °F 62.6 °F 100% 30.10 in 4.0 mi NNE 4.6 mph - N/A   Overcast
11:55 PM 62.6 °F 62.6 °F 100% 30.09 in 2.0 mi North 4.6 mph - N/A   Overcast